Вернуться в каталог

THORAD AGENA D DEB

АктивенLEO
NORAD 4615·DEBRIS·🇺🇸 United States

Запущен Apr 8, 1970 с Vandenberg Space Force Base

Loading…

Ближайшие Пролёты (ближайшие 24 часа)

TLE

СвежийSource: Space-Track

Эпоха: Sep 14, 2026, 15:18 UTC

1  4615U 70025T   26257.63793514  .00000190  00000-0  25820-3 0  9990
2  4615 100.1569  32.1087 0059119 243.4589 129.0955 13.72802191814919

Отслеживайте THORAD AGENA D DEB в реальном времени с AllMySat

Download on the App Store